Wind_Speed
20 22 19 18 19 19 18 17 16 16 16 16 16 17 19 18 18 17 15 15 12 11 10 8 8 9 10 10 12 12 12 13 14 16 18 20 19 18 17 18 18 18 18
30 23 21 20 20 19 18 18 16 16 16 16 16 16 16 16 15 15 14 13 11 9 9 7 7 9 9 10 10 11 12 13 12 15 17 17 16 13 14 14 16 17 16
31 24 22 21 20 20 19 17 15 15 15 15 16 16 15 14 14 14 14 12 10 9 8 9 7 8 9 9 10 11 12 12 13 15 13 15 15 16 18 16 16 15 17
31 25 22 21 20 19 18 17 15 15 15 14 15 15 13 13 14 14 12 11 9 8 9 9 9 9 8 9 11 11 11 11 11 15 14 14 12 15 15 15 15 16 15
26 25 23 21 19 18 17 16 16 15 14 13 12 12 10 11 12 11 10 10 9 7 9 8 9 9 8 9 11 11 11 11 14 14 10 9 11 12 13 14 14 14 15
24 24 22 20 18 18 17 16 15 15 14 13 11 11 10 10 10 9 8 8 7 7 8 7 8 9 9 10 12 12 13 9 7 6 7 15 10 12 15 13 14 15 12
28 25 21 19 18 17 17 15 14 15 14 14 13 11 10 10 9 9 7 7 7 7 7 8 7 8 9 12 13 14 15 13 8 2 13 17 12 9 14 14 13 13 12
31 27 22 18 17 16 16 15 15 14 14 13 13 12 10 9 9 8 7 7 7 7 7 7 7 6 8 12 13 12 13 12 10 8 14 15 9 13 14 13 13 12 11
27 28 25 20 17 16 15 14 14 13 12 12 12 12 12 10 9 10 9 7 6 6 6 7 6 6 7 11 10 11 10 10 8 9 11 12 9 13 13 13 12 11 12
27 26 24 20 18 16 16 14 14 13 11 11 11 11 10 9 9 8 8 7 6 6 6 6 6 6 6 8 12 9 8 8 7 5 12 11 10 10 13 13 13 12 11
24 23 20 18 16 15 14 15 15 14 13 11 10 10 10 11 9 9 8 9 6 5 6 6 7 8 7 7 8 5 7 9 7 10 8 13 10 10 13 13 13 13 12
26 23 20 15 13 14 13 13 13 13 13 12 11 10 10 10 12 11 11 9 10 7 6 8 9 8 9 8 9 9 8 8 7 13 11 16 14 12 13 13 13 13 12
26 27 23 19 16 16 14 13 13 12 12 11 11 9 8 9 10 18 15 13 9 9 8 8 9 11 12 11 10 12 12 13 9 10 13 15 16 15 14 14 13 14 14
27 26 23 20 22 19 15 16 14 15 14 15 15 15 13 14 10 13 10 16 11 10 8 10 9 8 10 13 13 11 12 15 13 15 11 11 16 17 17 16 16 15 16
27 25 25 25 24 18 18 15 13 13 16 16 16 17 16 15 12 11 13 9 9 10 10 8 14 14 15 17 15 14 14 15 16 10 17 12 13 18 17 18 18 19 18
30 27 26 26 22 17 17 13 13 12 16 17 14 15 14 14 16 14 15 13 12 9 10 12 16 21 17 18 17 17 18 16 18 16 14 15 16 18 19 18 18 20 21
32 29 26 25 16 10 14 10 12 15 14 11 14 23 14 18 15 15 17 17 15 17 12 14 18 20 20 16 14 15 18 19 18 19 20 22 17 18 19 20 21 21 21
26 23 23 17 15 15 14 6 5 11 16 16 18 18 17 20 16 13 16 17 12 12 17 18 16 17 18 15 16 15 19 18 22 21 16 18 20 21 23 21 21 22 21
21 24 20 17 14 7 7 13 15 16 16 13 13 8 12 14 15 14 15 17 14 15 13 21 20 20 21 21 15 16 16 18 21 19 20 18 20 22 23 26 22 22 20
21 26 24 17 12 16 14 24 27 20 14 10 9 11 9 10 15 15 14 17 19 18 15 17 20 21 19 18 17 15 16 21 19 21 20 19 22 18 18 22 26 25 22
23 24 17 21 23 10 1 17 19 12 20 16 10 9 10 9 12 15 17 17 17 19 20 20 19 20 18 13 10 11 20 18 17 21 22 22 22 21 20 22 20 25 26
10 15 13 20 21 19 15 8 8 14 17 25 13 8 9 8 9 13 13 13 13 14 16 17 19 20 14 14 10 7 4 9 19 22 24 25 21 20 22 21 23 21 23
5 14 13 21 29 30 23 18 16 16 20 11 6 5 7 9 11 13 15 14 12 13 15 14 16 17 17 16 18 11 2 4 4 15 27 24 19 15 14 18 17 19 18
11 16 15 19 24 29 27 22 24 19 13 4 1 3 8 8 10 10 12 13 13 14 14 14 12 14 16 20 16 20 14 4 1 2 4 20 17 14 13 15 13 17 17
19 14 15 17 21 24 24 20 15 16 6 6 6 7 9 2 4 9 14 14 11 12 14 14 11 11 16 19 20 13 16 14 15 1 1 3 10 10 13 14 15 17 14
18 18 18 19 19 17 18 15 10 8 10 8 10 11 12 9 12 15 14 14 12 10 10 10 10 9 14 18 20 20 13 6 8 7 1 3 3 2 9 8 3 9 6
Wind_Direction
143 140 135 133 132 132 133 123 115 111 115 115 115 115 114 113 114 116 119 122 122 122 117 115 114 108 110 106 110 113 112 108 108 107 109 108 103 104 108 108 106 103 103
142 140 137 133 131 130 133 129 124 119 121 119 119 120 115 113 115 116 118 114 119 121 124 129 129 120 121 114 116 115 108 103 105 107 111 109 106 107 114 129 110 113 108
138 134 132 134 135 134 134 132 127 122 124 123 124 123 119 117 121 125 117 121 122 119 119 121 138 136 134 126 128 117 110 110 119 117 108 117 109 104 108 117 111 114 113
132 133 132 138 139 138 139 137 135 130 130 128 128 129 125 125 128 128 126 128 128 128 116 118 135 137 142 138 138 126 118 121 128 138 123 111 116 118 116 117 115 117 117
133 137 134 134 137 139 141 142 140 135 133 131 129 127 126 130 131 133 134 138 136 139 123 122 133 139 143 145 146 132 129 130 113 129 142 155 140 130 123 122 120 122 118
141 139 136 137 137 139 141 142 141 139 138 138 138 133 145 138 135 134 140 144 150 141 131 140 141 153 150 155 152 140 144 146 134 104 131 159 142 130 125 127 127 133 123
147 144 141 141 140 141 140 141 144 145 145 146 148 152 146 146 145 153 151 160 161 152 141 145 151 167 165 162 159 151 153 146 128 110 156 171 148 140 138 138 139 138 133
147 146 144 144 145 145 144 146 148 152 152 152 150 147 149 160 164 157 155 158 157 160 163 160 165 172 178 169 164 161 154 149 135 121 159 168 144 152 150 148 148 149 143
151 147 147 148 149 148 152 153 152 156 157 156 154 158 167 167 167 167 169 167 173 173 179 175 178 183 185 176 165 165 161 161 134 102 179 167 155 162 159 154 155 155 152
157 149 151 155 157 158 160 160 157 161 166 164 169 178 173 181 183 184 187 180 182 190 187 185 187 196 204 187 181 171 168 178 150 119 170 182 159 168 168 160 163 163 161
146 152 155 157 163 169 171 171 170 172 178 179 183 192 191 196 196 210 203 195 205 203 195 183 191 204 209 197 190 202 197 193 171 173 154 180 170 184 176 171 169 172 170
154 163 159 155 166 177 186 189 187 183 188 189 190 193 205 210 221 234 211 208 225 211 202 196 192 197 202 200 197 209 217 207 261 213 209 182 182 195 190 180 177 179 180
160 165 171 169 172 185 198 198 201 204 207 202 207 220 224 215 270 223 229 210 213 221 210 206 200 207 203 194 199 213 217 207 239 244 231 213 194 197 203 192 188 187 190
170 169 177 181 178 187 200 207 213 214 217 220 221 218 227 236 222 206 226 220 216 212 202 228 217 221 206 206 209 220 212 216 221 244 240 233 209 198 214 204 199 198 202
180 184 183 179 182 190 195 202 212 224 227 218 230 230 229 237 230 233 226 208 198 218 201 200 210 216 212 214 221 235 214 218 212 240 238 230 216 210 215 212 207 206 206
188 192 192 186 189 184 198 201 212 225 237 230 228 240 231 238 236 229 240 235 206 208 209 223 228 221 217 204 208 227 232 216 213 216 217 224 231 227 221 222 216 212 209
187 192 191 183 186 193 192 204 224 233 246 249 267 255 227 231 231 236 246 253 246 241 232 234 239 232 253 252 225 236 234 230 227 226 234 234 225 233 233 225 227 222 217
176 167 168 159 104 61 37 4 267 258 262 258 239 249 233 228 224 237 251 259 271 240 232 229 233 229 245 234 230 242 237 240 236 231 228 230 225 233 232 231 232 230 231
174 150 145 122 105 166 315 324 330 300 267 269 244 239 245 231 242 248 250 254 263 269 238 223 223 237 233 231 231 238 233 237 236 240 231 231 227 232 237 230 232 232 235
171 152 138 134 240 91 232 277 286 318 281 278 244 249 256 261 259 257 256 259 259 251 238 234 233 240 241 232 224 254 247 245 239 233 231 237 234 229 234 239 234 233 240
156 168 163 174 175 121 257 269 279 329 308 281 253 264 248 272 282 290 290 287 283 271 263 252 245 240 224 220 230 284 276 261 229 233 243 242 226 233 229 234 240 237 237
134 182 160 162 152 122 98 53 297 246 229 288 275 252 275 289 299 301 299 297 298 289 278 270 259 250 222 221 216 214 275 243 230 230 232 233 229 233 236 231 237 242 244
151 134 138 144 144 136 118 188 187 232 258 277 248 258 284 295 308 313 309 305 295 288 284 281 265 253 230 209 197 185 188 220 208 216 227 232 236 238 238 234 237 247 252
147 130 133 138 157 158 157 178 206 231 258 217 166 10 342 320 307 313 312 317 306 293 283 275 265 249 226 222 220 228 224 239 174 330 231 220 235 233 234 231 217 243 235
140 129 133 145 163 174 182 191 212 245 222 97 55 18 11 44 8 351 347 347 320 306 292 274 261 247 231 230 215 206 219 263 266 152 266 281 237 224 235 237 242 240 201
144 144 144 146 147 161 170 186 166 117 102 85 48 33 38 43 8 355 347 355 349 324 311 297 270 247 229 226 228 230 208 174 218 220 164 277 193 260 235 231 259 190 206
Height
801 801 803 804 806 808 812 813 815 817 819 821 824 825 826 827 829 831 833 835 836 838 839 841 841 842 843 843 844 846 848 849 850 851 852 852 854 856 857 857 858 860 861
796 800 802 805 807 809 812 814 816 818 820 823 825 826 828 829 830 832 834 835 837 838 838 840 841 842 843 843 845 847 849 851 853 853 854 855 856 857 858 859 860 861 863
796 801 803 806 808 810 813 816 819 820 822 824 826 828 829 830 832 833 834 836 837 838 838 838 840 841 842 844 846 848 850 851 852 854 857 857 858 859 860 861 862 863 864
796 801 804 807 810 812 814 816 819 821 823 826 828 829 830 831 832 834 835 837 837 838 838 839 840 841 842 844 847 849 851 851 852 854 857 859 861 860 861 862 863 864 865
799 802 806 809 812 814 816 818 819 822 824 827 830 831 832 832 833 834 835 836 837 839 838 839 841 842 843 845 847 850 852 852 853 855 857 859 862 861 862 863 865 866 867
801 805 807 810 813 815 817 819 821 823 825 827 830 832 833 833 834 835 836 837 838 839 839 840 842 843 843 844 847 850 853 853 855 856 858 859 862 861 862 863 865 867 868
800 805 809 811 814 816 817 820 822 823 825 827 829 832 833 834 835 836 837 837 839 839 840 841 841 841 841 842 845 848 851 854 855 856 858 860 861 862 863 864 865 867 869
802 804 809 812 815 817 818 820 822 825 826 828 829 831 833 835 835 836 837 837 838 839 840 841 842 841 842 843 845 849 851 854 856 857 859 860 859 861 862 863 866 867 869
807 805 808 812 815 817 819 821 822 825 827 828 831 832 832 834 835 836 836 836 837 839 841 842 843 843 844 846 847 850 852 853 855 856 857 858 859 861 862 863 865 866 868
806 805 808 810 814 817 818 820 822 825 828 829 831 833 833 835 836 836 837 837 837 839 840 842 843 844 846 847 848 850 853 854 855 855 856 857 859 860 862 862 864 867 868
805 807 809 811 814 817 819 821 822 823 827 829 831 832 833 835 836 836 837 838 838 840 841 842 843 844 846 848 849 851 853 855 854 855 854 856 857 859 860 862 863 866 868
804 808 810 812 815 818 820 823 825 825 826 828 830 831 833 834 835 836 837 838 840 840 840 840 842 843 845 846 848 850 852 854 853 853 852 853 854 856 859 861 861 864 866
801 804 807 810 813 817 820 823 825 826 827 828 829 831 832 832 833 835 837 837 839 840 839 840 841 842 842 843 845 847 849 852 853 853 852 853 853 855 857 859 860 862 863
799 802 804 807 811 815 819 821 824 825 827 827 827 827 829 833 833 835 835 835 837 838 838 838 840 840 841 842 843 844 846 848 851 853 852 853 853 853 855 856 857 860 862
797 801 802 804 808 811 815 819 822 825 824 824 825 826 828 830 832 833 833 834 834 835 835 837 838 839 839 840 841 842 844 844 847 850 851 851 852 853 854 854 855 858 860
795 797 799 802 807 811 813 817 820 822 820 821 826 824 824 826 829 830 831 832 833 834 834 834 836 835 834 836 838 840 842 843 845 847 848 850 852 853 852 852 853 855 856
792 793 798 804 811 816 816 816 818 818 818 825 818 823 820 822 825 827 828 827 829 831 832 832 832 833 833 833 834 837 840 841 843 844 846 846 847 850 850 850 850 852 853
790 794 803 807 809 811 816 817 816 817 816 820 821 818 816 818 821 823 826 824 825 827 827 829 831 830 831 831 832 835 839 840 841 842 844 844 845 846 848 847 847 848 849
791 795 799 806 809 814 813 815 815 816 815 814 815 816 814 817 819 820 822 823 822 824 824 826 827 828 829 830 831 833 834 836 838 838 839 841 842 842 843 844 844 844 847
790 792 794 797 805 813 814 811 814 817 816 815 815 815 815 816 815 817 819 820 819 819 822 822 823 824 826 828 829 830 829 832 834 835 834 836 837 838 839 841 841 841 843
787 789 792 797 808 810 813 812 817 821 820 815 815 815 816 815 814 814 815 817 817 816 816 819 822 823 823 823 824 826 827 827 830 833 833 833 833 834 836 837 837 836 839
787 793 794 798 806 813 812 814 814 820 815 819 816 816 815 814 813 811 812 814 813 812 811 812 815 817 819 818 820 824 830 824 824 827 829 831 831 831 832 835 836 835 835
785 791 794 800 807 812 813 811 809 815 818 816 815 814 814 812 811 810 811 811 810 809 809 808 810 810 813 815 818 821 824 824 820 821 823 824 827 828 829 830 832 831 831
785 790 794 799 805 808 809 811 812 812 811 812 813 814 814 812 811 810 810 808 806 806 806 807 807 806 808 811 814 815 816 818 820 821 817 819 823 824 824 826 824 826 829
785 788 793 798 804 807 809 811 812 814 813 813 814 814 814 811 812 812 808 805 803 802 801 801 802 803 804 805 807 810 813 814 817 819 821 818 819 820 821 821 823 824 826
785 789 793 797 801 805 809 812 814 814 813 814 814 814 813 813 813 810 807 803 802 801 798 796 797 799 800 801 804 805 807 811 815 818 819 818 817 819 820 822 822 822 822